Probability
0 0 0 0 0 0 0 0 0 0 0 0 0 0 0 0 0 0 0 0 0 0 0 0 0 0 0 0 0 0 0 0 0 0 0 0 0 0 0 0 0 0 0
0 0 0 0 0 0 0 0 0 0 0 0 0 0 0 0 0 0 0 0 0 0 0 0 0 0 0 0 0 0 0 0 0 0 0 0 0 0 0 0 0 0 0
0 0 0 0 0 0 0 0 0 0 0 0 0 0 0 0 0 0 0 0 0 0 0 0 0 0 0 0 0 0 0 0 0 0 0 0 0 0 0 0 0 0 0
0 0 0 0 0 0 0 0 0 0 0 0 0 0 0 0 0 0 0 0 0 0 0 0 0 0 0 0 0 0 0 0 0 0 0 0 0 0 0 0 0 0 0
0 0 0 0 0 0 0 0 0 0 0 0 0 0 0 0 0 0 0 0 0 0 0 0 0 0 0 0 0 0 0 0 0 0 0 0 0 0 0 0 0 0 0
0 0 0 0 0 0 0 0 0 0 0 0 0 0 0 0 0 0 0 0 0 0 0 0 0 0 0 0 0 0 0 0 0 0 0 0 0 0 0 0 0 0 0
0 0 0 0 0 0 0 0 0 0 0 0 0 0 0 0 0 0 0 0 0 0 0 0 0 0 0 0 0 0 0 0 0 0 0 0 0 0 0 0 0 0 0
0 0 0 0 0 0 0 0 0 0 0 0 0 0 0 0 0 0 0 0 0 0 0 0 0 0 0 0 0 0 0 0 0 0 0 0 0 0 0 0 0 0 0
0 0 0 0 0 0 0 0 0 0 0 0 0 0 0 0 0 0 0 0 0 0 0 0 0 0 0 0 0 0 0 0 0 0 0 0 0 0 0 0 0 0 0
0 0 0 0 0 0 0 0 0 0 0 0 0 0 0 0 0 0 0 0 0 0 0 0 0 0 0 0 0 0 0 0 0 0 0 0 0 0 0 0 0 0 0
0 0 0 0 0 0 0 0 0 0 0 0 0 0 0 0 0 0 0 0 0 0 0 0 0 0 0 0 0 0 0 0 0 0 0 0 0 0 0 0 0 0 0
0 0 0 0 0 0 0 0 0 0 0 0 0 0 0 0 0 0 0 0 0 0 0 0 0 0 0 0 0 0 0 0 0 0 0 0 0 0 0 0 0 0 0
0 0 0 0 0 0 0 0 0 0 0 0 0 0 0 0 0 0 0 0 0 0 0 0 0 0 0 0 0 0 0 0 0 0 0 0 0 0 0 0 0 0 0
0 0 0 0 0 0 0 0 0 0 0 0 0 0 0 0 0 0 0 0 0 0 0 0 0 0 0 0 0 0 0 0 0 0 0 0 0 0 0 0 0 0 0
0 0 0 0 0 0 0 0 0 0 0 0 0 0 0 0 0 0 0 0 0 0 0 0 0 0 0 0 0 0 0 0 0 0 0 0 0 0 0 0 0 0 0
0 0 0 0 0 0 0 0 0 0 0 0 0 0 0 0 0 0 0 0 0 0 0 0 0 0 0 0 0 0 0 0 0 0 0 0 0 0 0 0 0 0 0
0 0 0 0 0 0 0 0 0 0 0 0 0 0 0 0 0 0 0 0 0 0 0 0 0 0 0 0 0 0 0 0 0 0 0 0 0 0 0 0 0 0 0
0 0 0 0 0 0 0 0 0 0 0 0 0 0 0 0 0 0 0 0 0 0 0 0 0 0 0 0 0 0 0 0 0 0 0 0 0 0 0 0 0 0 0
0 0 0 0 0 0 0 0 0 0 0 0 0 0 0 0 0 0 0 0 0 0 0 0 0 0 0 0 0 0 0 0 0 0 0 0 0 0 0 0 0 0 0
0 0 0 0 0 0 0 0 0 0 0 0 0 0 0 0 0 0 0 0 0 0 0 0 0 0 0 0 0 0 0 0 0 0 0 0 0 0 0 0 0 0 0
0 0 0 0 0 0 0 0 0 0 0 0 0 0 0 0 0 0 0 0 0 0 0 0 0 0 0 0 0 0 0 0 0 0 0 0 0 0 0 0 0 0 0
0 0 0 0 0 0 0 0 0 0 0 0 0 0 0 0 0 0 0 0 0 0 0 0 0 0 0 0 0 0 0 0 0 0 0 0 0 0 0 0 0 0 0
0 0 0 0 0 0 0 0 0 0 0 0 0 0 0 0 0 0 0 0 0 0 0 0 0 0 0 0 0 0 0 0 0 0 0 0 0 0 0 0 0 0 0
0 0 0 0 0 0 0 0 0 0 0 0 0 0 0 0 0 0 0 0 0 0 0 0 0 0 0 0 0 0 0 0 0 0 0 0 0 0 0 0 0 0 0
0 0 0 0 0 0 0 0 0 0 0 0 0 0 0 0 0 0 0 0 0 0 0 0 0 0 0 0 0 0 0 0 0 0 0 0 0 0 0 0 0 0 0
0 0 0 0 0 0 0 0 0 0 0 0 0 0 0 0 0 0 0 0 0 0 0 0 0 0 0 0 0 0 0 0 0 0 0 0 0 0 0 0 0 0 0
Height
5626 5628 5631 5634 5636 5639 5642 5644 5647 5649 5652 5654 5656 5659 5661 5662 5664 5665 5667 5668 5669 5670 5671 5672 5672 5673 5674 5674 5675 5675 5676 5677 5678 5679 5679 5679 5679 5678 5678 5678 5678 5678 5677
5615 5617 5619 5622 5624 5627 5630 5633 5635 5638 5640 5642 5645 5647 5649 5651 5652 5654 5655 5656 5657 5659 5660 5660 5661 5662 5663 5663 5664 5665 5666 5666 5667 5668 5669 5668 5668 5668 5667 5667 5666 5666 5666
5603 5605 5608 5610 5613 5615 5618 5621 5623 5626 5628 5630 5633 5635 5637 5639 5640 5642 5643 5644 5646 5647 5648 5649 5650 5651 5652 5653 5653 5654 5655 5655 5656 5657 5657 5657 5657 5656 5656 5656 5655 5655 5654
5590 5593 5596 5598 5601 5603 5606 5608 5611 5614 5616 5618 5621 5623 5625 5627 5628 5630 5631 5633 5634 5635 5636 5637 5639 5640 5641 5641 5642 5643 5644 5644 5645 5645 5646 5646 5646 5645 5645 5644 5644 5643 5643
5578 5581 5583 5586 5588 5591 5593 5596 5599 5601 5604 5606 5608 5611 5613 5614 5616 5618 5619 5621 5622 5623 5625 5626 5627 5628 5629 5630 5631 5632 5632 5633 5633 5634 5634 5634 5634 5634 5633 5633 5633 5632 5631
5566 5568 5570 5573 5575 5578 5581 5584 5586 5589 5591 5594 5596 5598 5601 5602 5604 5606 5607 5609 5610 5612 5614 5615 5616 5617 5618 5619 5620 5621 5621 5622 5622 5622 5623 5623 5623 5622 5622 5621 5621 5621 5620
5552 5555 5557 5560 5563 5565 5568 5571 5574 5576 5579 5581 5584 5586 5588 5590 5592 5594 5595 5597 5599 5601 5603 5604 5605 5606 5607 5608 5609 5609 5610 5610 5611 5611 5611 5611 5611 5611 5611 5610 5609 5609 5608
5539 5541 5544 5547 5550 5553 5555 5558 5561 5563 5566 5569 5571 5573 5576 5578 5580 5582 5584 5586 5588 5590 5592 5593 5594 5595 5596 5596 5597 5598 5599 5599 5599 5600 5600 5600 5600 5599 5599 5599 5598 5597 5596
5527 5529 5532 5535 5537 5540 5543 5545 5548 5550 5553 5556 5558 5561 5564 5566 5568 5570 5572 5574 5577 5579 5580 5581 5583 5584 5585 5585 5586 5587 5588 5588 5587 5588 5588 5588 5588 5588 5587 5587 5586 5585 5584
5516 5518 5521 5523 5526 5528 5531 5533 5536 5538 5540 5543 5545 5548 5551 5554 5556 5558 5560 5562 5565 5567 5569 5570 5571 5572 5573 5573 5574 5575 5576 5576 5576 5577 5577 5577 5577 5576 5575 5574 5574 5573 5572
5505 5507 5509 5512 5514 5517 5519 5522 5524 5526 5528 5531 5533 5536 5538 5541 5544 5546 5548 5550 5553 5555 5557 5559 5560 5561 5561 5562 5562 5563 5564 5564 5564 5564 5565 5565 5565 5564 5563 5562 5561 5560 5559
5494 5496 5498 5500 5503 5505 5507 5510 5512 5514 5516 5518 5520 5523 5526 5529 5531 5534 5536 5539 5541 5543 5545 5547 5548 5549 5550 5550 5551 5552 5552 5552 5552 5552 5553 5553 5553 5552 5551 5550 5549 5548 5547
5483 5485 5487 5489 5491 5493 5495 5498 5500 5503 5505 5507 5509 5511 5514 5517 5519 5522 5524 5527 5529 5531 5533 5535 5536 5537 5538 5539 5539 5540 5540 5540 5540 5540 5541 5541 5540 5540 5539 5538 5537 5536 5535
5472 5474 5476 5478 5480 5482 5484 5486 5489 5491 5493 5495 5497 5500 5502 5505 5508 5510 5512 5515 5517 5519 5521 5523 5524 5525 5526 5527 5528 5528 5529 5529 5529 5529 5528 5528 5528 5527 5526 5526 5525 5525 5524
5461 5464 5465 5467 5469 5471 5473 5475 5478 5480 5482 5484 5486 5489 5491 5494 5497 5499 5500 5503 5505 5508 5509 5511 5512 5514 5515 5516 5517 5517 5518 5517 5517 5517 5516 5516 5515 5515 5514 5514 5513 5512 5511
5450 5453 5455 5457 5459 5460 5462 5465 5466 5469 5471 5473 5475 5477 5480 5482 5485 5487 5489 5491 5493 5495 5497 5499 5501 5502 5504 5505 5506 5506 5506 5506 5506 5506 5505 5504 5504 5503 5502 5502 5501 5500 5499
5440 5442 5444 5446 5448 5450 5452 5455 5457 5459 5460 5462 5464 5466 5468 5471 5473 5475 5478 5480 5482 5484 5485 5488 5489 5491 5492 5494 5494 5495 5495 5495 5495 5494 5494 5493 5493 5492 5491 5490 5489 5489 5488
5429 5431 5433 5435 5438 5440 5442 5444 5446 5448 5450 5452 5454 5456 5457 5460 5462 5464 5467 5469 5471 5473 5475 5477 5478 5479 5481 5482 5483 5483 5483 5483 5483 5483 5483 5482 5482 5481 5480 5479 5478 5477 5477
5419 5421 5423 5425 5427 5429 5431 5433 5435 5437 5439 5442 5443 5445 5447 5449 5451 5454 5456 5458 5461 5462 5464 5466 5467 5468 5469 5471 5471 5472 5472 5472 5472 5472 5472 5471 5471 5470 5469 5468 5467 5467 5466
5409 5410 5412 5415 5417 5419 5421 5423 5425 5427 5429 5431 5433 5435 5437 5439 5442 5444 5446 5449 5450 5452 5454 5455 5457 5458 5459 5459 5460 5461 5462 5462 5462 5462 5461 5461 5460 5459 5459 5458 5457 5457 5456
5399 5401 5402 5404 5406 5409 5411 5413 5415 5417 5419 5421 5423 5425 5428 5430 5432 5435 5437 5439 5441 5442 5444 5445 5446 5447 5448 5449 5450 5451 5451 5451 5451 5451 5451 5450 5450 5449 5449 5448 5448 5447 5447
5390 5391 5393 5394 5396 5398 5401 5403 5405 5408 5410 5412 5414 5416 5418 5421 5423 5425 5427 5430 5431 5433 5434 5435 5436 5438 5438 5439 5440 5441 5441 5441 5441 5441 5441 5441 5440 5440 5440 5439 5439 5438 5438
5381 5382 5384 5385 5387 5389 5392 5394 5397 5399 5401 5403 5405 5407 5409 5412 5414 5416 5419 5420 5422 5423 5425 5426 5427 5428 5429 5430 5431 5432 5432 5432 5432 5432 5432 5432 5431 5431 5431 5431 5430 5430 5430
5373 5374 5376 5377 5379 5381 5384 5386 5388 5391 5393 5395 5397 5399 5401 5403 5405 5407 5409 5411 5413 5414 5415 5417 5418 5419 5420 5421 5422 5423 5423 5423 5424 5423 5424 5423 5423 5423 5423 5422 5422 5422 5422
5365 5367 5368 5370 5372 5374 5376 5378 5380 5383 5385 5387 5389 5391 5393 5395 5397 5399 5400 5402 5403 5405 5406 5408 5409 5410 5411 5412 5413 5414 5415 5415 5415 5415 5415 5415 5415 5415 5415 5415 5414 5414 5414
5359 5360 5362 5363 5365 5367 5369 5371 5373 5375 5378 5380 5382 5384 5386 5387 5389 5391 5392 5394 5395 5396 5397 5399 5400 5402 5403 5404 5405 5406 5406 5407 5407 5407 5407 5408 5408 5407 5407 5407 5407 5407 5407
Wind_Speed
41 42 42 42 43 43 43 42 43 43 43 42 42 41 42 42 42 42 41 41 41 41 40 40 40 40 40 40 40 40 39 39 39 39 39 38 39 39 39 40 40 41 41
42 42 42 43 43 43 43 44 43 43 43 43 43 43 43 43 42 42 42 42 42 41 41 41 40 39 39 39 39 39 39 39 40 40 38 38 39 40 40 41 41 40 41
43 43 42 43 44 44 44 44 44 43 43 43 43 44 44 43 43 43 43 42 42 41 41 40 40 40 39 39 39 40 40 40 40 40 39 39 38 39 40 40 40 40 40
44 43 43 44 44 45 45 44 44 44 44 44 43 44 44 43 43 43 43 43 42 41 40 40 39 39 39 40 40 40 40 39 39 40 39 39 39 39 39 39 39 39 39
44 44 44 44 45 46 45 44 44 44 44 44 44 44 43 43 42 42 42 41 41 40 39 39 39 39 39 40 39 39 39 39 39 39 39 39 38 38 38 38 38 38 39
44 45 45 45 45 45 45 45 45 44 44 44 44 44 43 43 42 41 41 40 39 39 39 39 39 39 39 39 38 38 38 38 39 39 39 38 38 38 38 39 39 39 39
44 44 45 45 45 45 45 45 45 45 45 44 44 44 43 42 41 41 39 39 38 38 38 37 38 38 38 37 38 38 38 38 38 38 39 39 38 38 39 40 40 40 40
41 42 42 43 44 44 44 44 45 45 45 45 45 44 43 42 41 40 39 39 38 38 38 38 38 38 38 38 38 38 38 38 38 38 38 38 39 39 40 40 41 41 41
39 40 40 41 41 42 42 42 43 44 44 45 45 44 44 43 42 40 40 40 40 39 39 39 39 40 39 39 39 38 38 38 38 38 39 39 40 40 41 41 42 42 41
38 38 38 39 40 41 41 42 43 43 43 43 44 44 44 43 42 41 41 41 40 39 39 38 39 39 39 39 39 39 39 38 38 39 39 40 40 41 42 42 42 42 41
36 37 37 38 39 40 41 41 41 41 41 42 42 43 43 42 41 41 41 41 40 39 39 39 38 39 39 39 39 39 38 38 39 39 40 40 40 41 41 42 42 42 42
36 36 36 37 38 39 40 40 40 40 40 40 41 41 41 42 41 41 41 40 40 40 40 39 39 38 38 39 39 39 39 39 39 40 40 40 41 41 41 41 41 41 41
36 36 36 37 37 38 39 39 39 39 38 38 39 40 40 41 41 41 41 41 41 41 40 39 39 39 38 38 38 38 39 39 40 40 41 41 41 41 41 41 41 41 41
36 36 36 36 36 36 37 38 38 38 38 38 38 39 39 40 40 40 40 40 40 40 39 38 38 38 38 38 38 38 38 38 39 39 40 40 40 41 41 41 41 40 41
35 35 35 35 35 35 36 36 36 36 36 36 36 37 38 39 39 39 39 39 39 39 39 39 38 38 38 37 37 38 38 38 38 38 39 39 40 40 40 40 40 40 39
34 34 35 34 33 33 33 34 35 35 35 35 35 36 37 38 38 38 38 38 38 38 38 38 37 37 36 36 37 37 37 37 37 38 38 38 38 39 39 39 39 39 38
34 33 33 34 33 32 33 33 34 35 35 35 34 35 35 35 36 37 37 36 37 37 36 36 37 36 36 36 37 37 37 37 37 37 37 37 37 37 37 37 37 37 37
33 33 33 33 34 34 34 33 34 34 34 34 34 34 34 34 35 36 35 35 35 36 36 35 35 36 36 36 36 36 35 36 36 36 36 36 36 35 35 36 36 36 36
33 33 33 33 33 33 33 33 33 33 34 34 34 33 33 33 33 34 34 34 34 35 35 35 35 35 35 35 35 35 34 34 34 34 34 34 34 34 34 34 34 34 33
31 32 32 33 32 32 32 32 32 32 32 33 33 32 32 32 33 33 33 33 33 33 33 33 33 33 33 34 34 33 33 33 33 32 32 32 32 33 33 33 32 32 31
29 30 31 31 31 31 31 31 32 31 31 31 31 31 31 31 31 31 31 31 31 31 31 32 32 32 31 31 32 32 32 32 32 31 31 32 32 32 32 31 31 30 30
27 27 28 29 29 29 29 29 29 30 29 30 30 30 30 29 29 30 30 30 30 30 30 30 30 30 30 30 30 30 30 30 31 31 31 31 31 31 31 30 30 29 28
26 26 26 26 27 27 27 27 27 27 28 28 28 28 28 28 29 29 29 30 30 30 30 29 30 29 29 29 29 29 29 29 29 29 29 29 29 29 29 29 28 28 27
23 24 24 24 24 25 25 26 26 26 26 26 26 27 27 28 28 28 28 29 29 30 30 29 29 29 29 28 29 28 28 28 28 27 28 28 27 27 27 27 27 26 26
20 21 21 21 22 23 24 24 25 25 25 25 25 26 26 26 26 27 27 28 28 28 29 29 29 28 28 28 27 27 27 27 27 26 26 26 26 26 25 25 25 25 25
18 18 19 19 20 20 22 23 23 24 24 25 25 24 24 24 24 24 24 25 25 26 26 26 27 27 27 27 26 25 25 25 25 25 25 25 25 25 24 24 24 24 25
Wind_Direction
253 253 252 251 252 253 254 255 255 256 256 256 257 258 259 260 261 262 263 263 263 264 265 266 267 267 268 268 268 268 268 268 269 271 272 272 271 271 272 272 272 273 272
253 253 253 253 253 253 254 254 255 256 256 256 257 258 259 260 261 262 263 263 264 264 265 265 266 266 267 267 267 267 268 268 270 271 271 271 271 271 273 273 273 273 274
253 253 253 253 253 254 254 254 255 255 256 256 257 258 259 259 260 261 262 263 264 264 264 264 264 265 265 266 267 268 268 268 270 270 271 271 272 273 273 274 274 274 275
253 252 253 253 254 255 254 254 255 255 256 256 257 258 258 259 260 260 261 263 263 263 262 263 263 264 265 265 266 268 268 269 270 270 271 272 273 274 274 275 275 275 276
254 253 253 253 253 253 253 254 254 255 256 256 257 258 259 260 260 261 262 262 262 261 261 262 263 264 266 266 266 267 267 269 269 270 272 273 274 274 275 275 275 276 277
254 254 254 253 253 253 253 253 254 254 256 257 257 258 259 260 260 260 261 260 260 260 261 262 263 264 265 265 266 267 268 269 270 271 272 274 275 275 276 277 276 277 278
254 254 253 254 253 253 252 252 253 254 255 256 256 257 258 258 259 258 258 258 259 261 262 263 264 265 265 266 266 267 269 269 270 271 273 274 275 276 277 277 277 277 278
254 253 253 253 254 254 253 253 254 254 255 255 255 256 256 257 258 257 257 258 260 261 263 264 265 265 266 266 267 268 269 269 270 271 273 274 275 276 277 278 278 279 279
254 253 253 254 254 253 253 254 255 255 256 256 255 255 256 256 255 256 257 258 259 260 262 263 264 265 265 266 267 267 268 269 270 271 272 274 274 276 277 279 280 281 280
253 253 253 253 254 254 253 254 255 256 256 256 256 255 254 254 254 255 256 257 258 260 261 262 264 265 266 266 267 267 268 269 271 271 272 274 275 277 279 279 279 279 280
254 254 254 254 254 254 253 254 256 256 257 256 255 254 253 253 254 254 255 256 257 258 260 261 262 264 265 266 267 268 268 270 270 271 273 274 276 277 278 278 278 279 280
256 255 254 255 256 255 254 254 255 256 257 256 255 253 252 253 253 253 254 256 256 257 259 260 261 263 264 265 266 267 269 270 271 272 273 274 275 276 277 278 278 279 280
256 256 256 256 257 256 255 254 255 256 256 255 254 253 252 252 252 253 254 255 256 257 258 259 260 262 263 265 266 268 269 270 271 272 274 275 276 276 276 277 278 279 280
256 255 255 255 256 256 256 256 256 256 256 255 253 252 252 252 253 253 254 254 255 256 257 259 261 262 264 266 267 268 270 271 272 273 275 276 276 276 276 276 277 278 280
255 255 255 255 255 255 255 255 256 257 256 255 254 253 252 253 253 254 254 255 255 256 257 258 260 262 264 265 267 268 270 272 274 275 275 276 276 276 276 276 276 278 279
255 255 255 255 254 254 253 253 255 256 255 255 254 254 254 253 253 253 254 254 255 257 257 258 260 262 264 265 267 269 270 272 274 275 276 276 276 276 275 275 276 277 279
256 256 256 255 254 255 254 253 253 254 254 255 256 256 256 255 254 253 254 255 256 257 258 259 260 261 263 265 267 269 270 272 273 275 276 276 276 276 275 275 276 277 279
256 256 256 256 255 255 255 255 254 254 253 254 256 257 257 255 254 253 253 255 256 258 259 260 261 262 263 265 267 269 270 272 273 274 276 276 277 276 276 276 276 277 278
258 257 256 256 256 256 256 256 256 254 253 254 255 256 256 254 254 252 252 254 257 259 259 260 262 263 263 264 266 268 269 271 273 274 275 276 276 276 277 277 277 278 279
259 258 257 256 256 256 256 255 255 254 254 254 254 255 255 254 254 253 253 254 256 258 259 260 262 263 264 264 265 267 268 270 272 274 275 276 276 276 276 277 278 278 279
262 260 259 257 255 254 254 254 254 254 254 253 253 253 253 252 253 253 253 254 256 258 259 260 261 262 263 263 264 265 268 270 272 272 274 275 275 275 276 276 277 278 279
262 260 258 256 253 252 251 251 251 252 251 251 251 251 251 251 252 252 253 254 256 257 259 260 261 261 261 263 264 265 268 270 271 272 274 275 276 276 276 276 276 276 278
262 261 259 256 252 251 250 249 248 249 249 249 250 249 249 250 252 253 254 255 257 259 260 260 261 262 262 263 265 266 268 272 272 273 274 275 276 277 276 276 276 276 277
261 259 257 253 251 250 249 248 247 248 249 249 250 249 249 251 252 253 254 255 257 258 259 261 261 261 261 263 265 267 269 271 272 273 273 275 276 276 276 276 276 276 277
260 256 254 252 250 250 248 247 247 248 248 248 249 249 251 252 252 253 254 255 257 258 259 260 259 260 261 262 264 266 268 269 269 270 272 273 274 274 275 276 275 276 277
259 256 254 253 252 252 250 247 246 246 246 247 248 249 250 251 252 252 253 255 256 258 259 258 258 259 259 261 263 265 266 267 267 268 270 271 272 273 273 274 275 276 279